Powrót do katalogu

FORMOSAT7-2/COSMIC2-2

AktywnyPogodaVLEO
NORAD 44351·PAYLOAD·🇹🇼 Taiwan

Wystrzelony Jun 25, 2019 z Cape Canaveral Space Force Station

Loading…

Następne Przeloty (najbliższe 24 godziny)

TLE

ŚwieżeSource: Space-Track

Epoka: Sep 14, 2026, 08:43 UTC

1 44351U 19036N   26257.36352277  .00002022  00000-0  14642-3 0  9999
2 44351  23.9978 267.4696 0000868 129.8086 230.2492 14.96814450396960

Śledź FORMOSAT7-2/COSMIC2-2 w czasie rzeczywistym z AllMySat

Download on the App Store